Gillam, Manitoba

10:48 PM CST on February 21, 2017 (GMT -0600)
Gillam

Weather History for CYGX - December, 2012

Change the Weather History Date:

Thursday, December 20, 2012

  Actual Average Record
Temperature  
Mean Temperature -6 °F -  
Max Temperature 0 °F 0 °F 32 °F (2006)
Min Temperature -11 °F -13 °F -31 °F (2008)
Degree Days  
Heating Degree Days 70    
Moisture  
Dew Point -13 °F    
Average Humidity 72    
Maximum Humidity 78    
Minimum Humidity 58    
Precipitation  
Precipitation 0.00 in 0.03 in - ()
Sea Level Pressure  
Sea Level Pressure 30.06 in    
Wind  
Wind Speed 7 mph ()    
Max Wind Speed 12 mph    
Max Gust Speed -    
Visibility 15.0 miles    
Events      
Averages and records for this station are not official NWS values.
T = Trace of Precipitation, MM = Missing Value Source: Averaged Metar Reports

Daily Weather History Graph

Daily Weather History Graph

Search for Another Location

Airport or City:

Trip Planner

Search our weather history database for the weather conditions in past years. The results will help you decide how hot, cold, wet, or windy it might be!

Date:

Astronomy

Dec. 20, 2012 Rise Set
Actual Time 8:50 AM CST 3:42 PM CST
Civil Twilight 8:02 AM CST 4:30 PM CST
Nautical Twilight 7:12 AM CST 5:20 PM CST
Astronomical Twilight 6:26 AM CST 6:06 PM CST
Moon 11:59 AM CST (12/20) 12:34 AM CST (12/20)
Length of Visible Light 8h 28m
Length of Day
6h 52m
First Quarter, 55% of the Moon is Illuminated
Dec 20
First Quarter
Dec 28
Full
Jan 4
Last Quarter
Jan 11
New
Jan 18
First Quarter

Hourly Weather History & Observations

Time (CST) Temp. Windchill Dew Point Humidity Pressure Visibility Wind Dir Wind Speed Gust Speed Precip Events Conditions
12:00 AM -9 °F - -15 °F 62% 29.98 in 15 mi WSW 9.2 mph - -  
12:00 AM -9.4 °F -25.6 °F -14.8 °F 77% 29.98 in 15.0 mi WSW 8.1 mph - N/A   Clear
1:00 AM -9.4 °F -24.3 °F -16.6 °F 71% 29.99 in 15.0 mi SW 6.9 mph - N/A   Clear
2:00 AM -9.4 °F -20.9 °F -16.6 °F 71% 30.00 in 15.0 mi SW 4.6 mph - N/A   Clear
3:00 AM -9.4 °F -25.6 °F -16.6 °F 71% 30.01 in 15.0 mi SW 8.1 mph - N/A   Clear
4:00 AM -9.4 °F -26.8 °F -16.6 °F 71% 30.02 in 15.0 mi SW 9.2 mph - N/A   Clear
5:00 AM -9.4 °F -22.7 °F -16.6 °F 71% 30.02 in 15.0 mi SW 5.8 mph - N/A   Clear
6:00 AM -10 °F - -17 °F 58% 30.03 in 15 mi WSW 5.8 mph - -  
6:00 AM -9.4 °F -25.6 °F -16.6 °F 71% 30.03 in 15.0 mi WSW 8.1 mph - N/A   Clear
7:00 AM -11.2 °F -29.0 °F -16.6 °F 77% 30.04 in 15.0 mi SW 9.2 mph - N/A   Clear
8:00 AM -9.4 °F -28.9 °F -16.6 °F 71% 30.04 in 15.0 mi WSW 11.5 mph - N/A   Clear
9:00 AM -9.4 °F -27.9 °F -14.8 °F 77% 30.05 in 15.0 mi SW 10.4 mph - N/A   Partly Cloudy
10:00 AM -7.6 °F -23.4 °F -14.8 °F 71% 30.05 in 15.0 mi WSW 8.1 mph - N/A   Partly Cloudy
11:00 AM -5.8 °F -21.2 °F -11.2 °F 77% 30.06 in 15.0 mi WSW 8.1 mph - N/A   Partly Cloudy
12:00 PM -3 °F - -10 °F 61% 30.06 in 15 mi WSW 8.1 mph - -   Clear
12:00 PM -4.0 °F -20.2 °F -9.4 °F 78% 30.06 in 15.0 mi WSW 9.2 mph - N/A   Scattered Clouds
1:00 PM -2.2 °F -16.8 °F -7.6 °F 78% 30.06 in 15.0 mi WSW 8.1 mph - N/A   Scattered Clouds
2:00 PM -0.4 °F -13.4 °F -7.6 °F 72% 30.06 in 15.0 mi WSW 6.9 mph - N/A   Partly Cloudy
3:00 PM -2.2 °F -16.8 °F -7.6 °F 78% 30.08 in 15.0 mi West 8.1 mph - N/A   Partly Cloudy
4:00 PM -4.0 °F -20.2 °F -9.4 °F 78% 30.09 in 15.0 mi WSW 9.2 mph - N/A   Partly Cloudy
5:00 PM -4.0 °F -17.8 °F -11.2 °F 71% 30.11 in 15.0 mi WSW 6.9 mph - N/A   Clear
6:00 PM -6 °F - -12 °F 64% 30.12 in 15 mi SW 6.9 mph - -  
6:00 PM -5.8 °F -21.2 °F -11.2 °F 77% 30.12 in 15.0 mi WSW 8.1 mph - N/A   Clear
7:00 PM -7.6 °F -20.6 °F -13.0 °F 77% 30.12 in 15.0 mi WSW 5.8 mph - N/A   Clear
8:00 PM -4.0 °F -22.1 °F -11.2 °F 71% 30.12 in 15.0 mi West 11.5 mph - N/A   Clear
9:00 PM -7.6 °F -22.1 °F -13.0 °F 77% 30.12 in 15.0 mi WSW 6.9 mph - N/A   Clear
10:00 PM -7.6 °F -20.6 °F -13.0 °F 77% 30.12 in 15.0 mi West 5.8 mph - N/A   Clear
11:00 PM -7.6 °F -20.6 °F -14.8 °F 71% 30.13 in 15.0 mi West 5.8 mph - N/A   Clear